Total_Precipitation_Accumulation
1.46 1.31 1.11 1.02 0.94 0.82 0.80 0.80 0.71 0.67 0.63 0.58 0.53 0.45 0.42 0.37 0.35 0.32 0.30 0.30 0.40 0.63 0.83 1.02 1.08 1.02 1.01 0.97 0.83 0.77 0.73 0.72 0.72 0.71 0.69 0.65 0.63 0.63 0.65 0.66 0.65 0.64 0.66
1.66 1.59 1.44 1.28 1.16 1.04 0.92 0.88 0.77 0.71 0.68 0.62 0.57 0.51 0.49 0.44 0.39 0.35 0.30 0.26 0.30 0.43 0.68 0.98 1.25 1.34 1.33 1.33 1.16 1.05 0.95 0.86 0.84 0.80 0.77 0.75 0.71 0.69 0.70 0.73 0.73 0.74 0.77
1.77 1.79 1.67 1.51 1.30 1.25 1.20 1.13 0.98 0.86 0.78 0.69 0.63 0.57 0.56 0.52 0.45 0.42 0.39 0.33 0.30 0.32 0.49 0.75 1.07 1.26 1.35 1.47 1.43 1.31 1.16 1.02 0.95 0.91 0.88 0.85 0.81 0.77 0.77 0.81 0.84 0.87 0.89
1.81 1.88 1.79 1.70 1.60 1.44 1.34 1.29 1.17 1.01 0.92 0.86 0.76 0.69 0.67 0.62 0.52 0.43 0.40 0.41 0.40 0.36 0.39 0.55 0.76 0.94 1.10 1.27 1.45 1.51 1.45 1.25 1.07 0.97 0.93 0.92 0.92 0.93 0.93 0.94 0.93 0.96 0.97
2.04 1.94 1.83 1.73 1.80 1.74 1.51 1.40 1.31 1.12 0.98 0.89 0.84 0.80 0.76 0.72 0.63 0.55 0.44 0.38 0.38 0.39 0.41 0.49 0.59 0.64 0.77 0.93 1.22 1.47 1.51 1.46 1.28 1.11 1.01 0.96 0.97 1.03 1.09 1.12 1.09 1.06 1.07
2.21 2.22 2.05 1.98 1.95 1.94 1.76 1.55 1.41 1.26 1.08 1.03 0.97 0.90 0.88 0.89 0.79 0.69 0.60 0.50 0.43 0.39 0.40 0.45 0.53 0.53 0.58 0.70 0.88 1.15 1.34 1.43 1.41 1.34 1.24 1.19 1.17 1.20 1.27 1.31 1.30 1.29 1.30
2.22 2.31 2.26 2.22 2.13 1.94 1.84 1.73 1.60 1.43 1.25 1.20 1.17 1.02 0.91 0.92 0.89 0.79 0.71 0.62 0.55 0.52 0.50 0.50 0.55 0.56 0.54 0.61 0.67 0.81 0.98 1.14 1.28 1.36 1.34 1.31 1.33 1.35 1.39 1.45 1.47 1.47 1.52
2.36 2.29 2.25 2.31 2.34 2.17 1.99 1.86 1.80 1.63 1.43 1.35 1.32 1.29 1.10 0.98 0.87 0.76 0.72 0.67 0.60 0.59 0.60 0.62 0.63 0.64 0.61 0.59 0.59 0.65 0.72 0.91 1.20 1.47 1.55 1.50 1.54 1.56 1.58 1.64 1.73 1.77 1.82
2.53 2.34 2.25 2.28 2.35 2.36 2.27 2.15 2.09 1.94 1.74 1.61 1.46 1.54 1.36 1.04 0.84 0.77 0.73 0.70 0.66 0.62 0.63 0.67 0.70 0.71 0.68 0.64 0.63 0.65 0.72 0.83 1.13 1.50 1.72 1.80 1.80 1.81 1.90 2.00 2.09 2.17 2.15
2.65 2.52 2.40 2.33 2.31 2.32 2.31 2.31 2.31 2.24 2.11 1.94 1.75 1.54 1.38 1.16 1.03 0.87 0.74 0.72 0.73 0.70 0.70 0.71 0.74 0.77 0.76 0.71 0.71 0.77 0.84 0.93 1.11 1.47 1.83 2.08 2.25 2.35 2.42 2.52 2.58 2.61 2.53
2.74 2.61 2.48 2.39 2.29 2.24 2.25 2.28 2.27 2.30 2.22 2.06 1.89 1.73 1.57 1.32 1.11 1.03 0.82 0.68 0.69 0.68 0.68 0.69 0.69 0.67 0.72 0.75 0.78 0.90 1.02 1.08 1.23 1.52 1.95 2.34 2.60 2.89 3.08 3.16 3.17 3.12 3.02
2.68 2.61 2.52 2.39 2.28 2.24 2.17 2.19 2.19 2.24 2.27 2.12 1.95 1.79 1.67 1.52 1.30 1.21 1.08 0.87 0.81 0.74 0.69 0.68 0.72 0.75 0.77 0.81 0.88 1.07 1.14 1.19 1.35 1.63 2.03 2.37 2.59 2.86 3.11 3.36 3.47 3.39 3.32
2.51 2.34 2.32 2.31 2.22 2.15 2.21 2.24 2.18 2.07 2.10 2.10 2.03 1.88 1.76 1.57 1.42 1.43 1.42 1.26 1.08 0.89 0.81 0.78 0.77 0.83 0.92 0.99 1.04 1.20 1.18 1.23 1.32 1.49 1.82 2.13 2.24 2.33 2.56 2.95 3.28 3.42 3.36
2.49 2.36 2.25 2.28 2.30 2.22 2.18 2.23 2.20 2.04 1.97 1.95 1.92 1.89 1.85 1.70 1.58 1.55 1.58 1.67 1.62 1.32 1.11 0.99 0.95 1.00 1.05 1.11 1.21 1.32 1.21 1.34 1.36 1.39 1.54 1.75 1.80 1.78 1.82 2.03 2.36 2.67 2.93
2.31 2.31 2.25 2.21 2.21 2.26 2.24 2.24 2.18 2.01 1.91 1.88 1.80 1.77 1.73 1.64 1.61 1.62 1.68 1.81 1.99 1.86 1.47 1.16 1.12 1.14 1.18 1.18 1.25 1.15 1.04 1.22 1.28 1.28 1.32 1.39 1.42 1.36 1.34 1.45 1.60 1.73 1.93
1.93 2.06 2.11 2.06 2.05 2.05 2.09 2.15 2.14 2.03 1.90 1.80 1.75 1.73 1.67 1.59 1.56 1.59 1.64 1.70 1.81 1.93 1.73 1.26 1.07 1.04 1.08 1.08 1.17 1.00 0.92 1.10 1.07 1.07 1.14 1.20 1.22 1.18 1.16 1.21 1.27 1.33 1.35
1.73 1.79 1.86 1.87 1.87 1.88 1.89 1.93 1.91 1.89 1.85 1.73 1.66 1.63 1.57 1.49 1.49 1.48 1.51 1.56 1.59 1.64 1.63 1.25 0.98 0.93 0.95 0.93 0.93 0.85 0.80 0.81 0.80 0.93 0.94 0.98 1.02 1.03 1.06 1.09 1.12 1.16 1.19
1.49 1.59 1.64 1.66 1.66 1.64 1.64 1.66 1.64 1.61 1.62 1.58 1.49 1.48 1.45 1.40 1.38 1.34 1.38 1.38 1.37 1.35 1.37 1.23 0.98 0.88 0.82 0.76 0.71 0.67 0.64 0.65 0.64 0.77 0.79 0.80 0.85 0.88 0.91 0.92 0.99 1.02 1.05
1.28 1.37 1.45 1.48 1.49 1.48 1.43 1.40 1.39 1.35 1.30 1.30 1.28 1.28 1.28 1.34 1.39 1.35 1.33 1.28 1.21 1.18 1.19 1.16 0.96 0.81 0.75 0.71 0.71 0.66 0.57 0.55 0.53 0.61 0.66 0.66 0.69 0.75 0.82 0.86 0.86 0.88 0.88
1.22 1.23 1.27 1.31 1.35 1.39 1.41 1.35 1.32 1.33 1.28 1.22 1.20 1.24 1.27 1.30 1.30 1.27 1.26 1.22 1.21 1.22 1.19 1.19 1.10 0.94 0.84 0.77 0.77 0.74 0.67 0.59 0.56 0.54 0.63 0.66 0.69 0.72 0.75 0.76 0.73 0.68 0.68
1.31 1.23 1.26 1.28 1.31 1.37 1.42 1.46 1.47 1.48 1.50 1.49 1.41 1.33 1.30 1.35 1.35 1.30 1.24 1.19 1.20 1.26 1.30 1.31 1.23 1.05 0.89 0.83 0.82 0.76 0.76 0.72 0.69 0.63 0.65 0.62 0.62 0.60 0.60 0.65 0.71 0.71 0.68
1.47 1.36 1.35 1.37 1.39 1.44 1.66 1.67 1.57 1.52 1.56 1.53 1.46 1.32 1.23 1.25 1.22 1.26 1.24 1.20 1.23 1.31 1.40 1.41 1.26 1.03 0.79 0.70 0.74 0.84 0.94 1.04 0.96 0.67 0.65 0.63 0.60 0.62 0.58 0.57 0.66 0.71 0.75
1.54 1.51 1.49 1.54 1.56 1.61 1.72 1.60 1.57 1.44 1.41 1.35 1.29 1.24 1.17 1.11 1.15 1.06 1.15 1.25 1.27 1.32 1.30 1.21 1.10 0.88 0.75 0.68 0.83 1.04 1.06 1.05 0.85 0.62 0.71 0.76 0.64 0.63 0.58 0.62 0.74 0.72 0.73
1.65 1.66 1.66 1.68 1.65 1.65 1.64 1.49 1.42 1.26 1.23 1.19 1.13 1.10 1.07 1.04 1.03 1.04 1.11 1.19 1.08 1.00 0.97 0.90 0.85 0.80 0.77 0.78 0.94 1.13 1.15 1.13 0.95 0.81 0.84 0.95 0.76 0.67 0.59 0.59 0.71 0.73 0.75
1.73 1.73 1.67 1.58 1.50 1.44 1.43 1.31 1.25 1.10 1.08 1.04 0.99 0.98 1.01 0.97 1.08 1.24 1.24 1.18 1.01 0.90 0.91 0.94 0.95 0.93 0.97 1.00 1.02 1.20 1.37 1.47 1.29 0.97 0.84 0.92 0.80 0.74 0.71 0.65 0.64 0.72 0.73
1.58 1.52 1.47 1.39 1.29 1.18 1.21 1.19 1.16 1.01 0.98 0.92 0.89 0.88 0.98 0.98 1.15 1.28 1.13 1.07 1.00 0.89 0.89 0.88 0.87 0.86 0.83 0.87 1.01 1.08 1.40 1.77 1.54 1.18 0.80 0.93 0.92 0.98 1.16 0.79 0.66 0.69 0.73